Weather in Bezimenne

Ukraine / Donetsk Region     47˚06′30″N   37˚56′09″E
temp.,
°C
wind,
m/s
gust,
m/s
humid.,
%
clouds,
%
prec.,
mm/h
press.,
hPa
HPBL,
m
27 november, fri
fri2723:00+5˚sse44811 0.0 1027420
02:00+5˚s44803 0.0 1027393
05:00+5˚s558358 0.0 1027397
08:00+5˚s678651 0.0 1027453
11:00+6˚ssw787911 0.0 1026660
14:00+6˚ssw78776 0.0 1024545
17:00+7˚ssw798496 0.0 1024359
20:00+8˚ssw7118698 0.0 1024296
28 november, sat
sat2823:00+8˚ssw7108777 0.0 1024219
02:00+7˚s798774 0.0 1024209
05:00+7˚s788376 0.0 1023262
08:00+6˚sse788662 0.0 1024269
11:00+7˚sse577578 0.0 1024248
14:00+8˚se567254 0.0 1023113
17:00+8˚ese79800 0.0 1023176
20:00+7˚ese78792 0.0 1023203
29 november, sun
sun2923:00+6˚ese787442 0.0 1023279
02:00+6˚ese677234 0.0 1023303
05:00+5˚ese787890 0.0 1023293
08:00+5˚ese9109066 0.0 1023315
11:00+5˚ese789127 0.0 1023304
14:00+7˚e678434 0.0 1023250
17:00+8˚ese698337 0.0 1023188
20:00+7˚ese7118448 0.0 1024318
30 november, mon
mon3023:00+7˚ese7108791 0.0 1024345
02:00+7˚e8119091 0.0 1024395
05:00+7˚e9128992 0.0 1024475
08:00+7˚e10138688 0.0 1024579
11:00+7˚e10138081 0.0 1024700
14:00+7˚ene10137789 0.0 1023602
17:00+7˚ene11158052 0.0 1023508
20:00+7˚e12157951 0.0 1023718
1 december, tue
tue123:00+6˚e13157849 0.0 1024829
02:00+5˚e13167524 0.0 1023864
05:00+5˚e1417783 0.0 1023968
08:00+5˚e15178038 0.0 10231063
11:00+5˚e141778100 0.0 10231086
14:00+6˚e141676100 0.0 10221035
17:00+6˚e14177789 0.0 1022914
20:00+5˚ese13168075 0.0 1023833